Location: Casteau
(50.5142°N, 4.0161°E)
Time: 01:50:15
(UTC+00:00)

Explorer 11/Cluster Stage 4 - Pass Details

Date: 08 August 2021
Orbit: 467 x 1257 km, 28.8° (Epoch: 18 September)

Event Time Altitude Azimuth Distance (km) Brightness Sun altitude
Rises 06:45:02 0° 217° (SW) 3,624 9.6 21.1°
Reaches altitude 10° 06:50:00 10° 184° (S) 2,885 9.5 21.9°
Maximum altitude 06:51:54 11° 169° (S) 2,867 9.7 22.2°
Drops below altitude 10° 06:53:51 10° 153° (SSE) 3,016 10.0 22.5°
Sets 06:59:31 0° 123° (ESE) 4,120 11.2 23.4°
